Powrót do katalogu

STARLINK-35388

AktywnyŁącznośćVLEO
NORAD 66466·PAYLOAD·🇺🇸 United States

Wystrzelony Nov 15, 2025 z Cape Canaveral Space Force Station

Loading…

Następne Przeloty (najbliższe 24 godziny)

TLE

ŚwieżeSource: CelesTrak SupGP

Epoka: Sep 14, 2026, 21:24 UTC

1 66466C 25262L   26257.89215278 -.00015053  00000+0 -54553-3 0  2576
2 66466  43.0011 307.4350 0001470 267.6399 142.5500 15.27566802    15

Śledź STARLINK-35388 w czasie rzeczywistym z AllMySat

Download on the App Store